sat.trackr.live / text

‹ back to catalog

STARLINK-32000

NORAD 60289 · 2024-132M

PAYLOAD ACTIVE UNKNOWN

§ Identity

Operator
Country
US
Launch date
2024-07-28
Launch site
AFETR
Launch vehicle
Mass (kg)
RCS (m²)

Purposes: comms

External: N2YO · Heavens-Above · Gunter

§ Orbital elements

Epoch: 2026-09-21T06:23:52.816128Z

Period
94.01 min
Inclination
53.1598°
Eccentricity
0.0001388
Mean motion
15.31701107 rev/d
Perigee alt
469.8 km
Apogee alt
471.7 km
Semi-major
6,848.9 km
B*
-3.0089e-5
RAAN
222.6136°
Arg perigee
83.4402°
Mean anomaly
276.6758°
Rev number
12,152

§ Raw data

STARLINK-320001 60289U 24132M   26264.26658352 -.00001299  00000+0 -30089-4 0  99902 60289  53.1598 222.6136 0001388  83.4402 276.6758 15.31701107121529

JSON: /api/v1/satellites/60289 · /tle

For live sub-satellite position, see the globe view (requires WebGL).

§ Visibility from observer

Set your observer location to see the next 7 days of passes ≥ 10°. The values pass through the URL so the page stays shareable.

No JS? Fill the form by hand. The geolocation button needs JavaScript.